HB9BFD-10 Weather Reports


Display with metric or nautical units.
time (UTC)temp
F
wind
direction
speed
MPH
gust
MPH
rain 1hr
in
rain 24hr
in
rain mn
in
humidity
%
barometer
mb
20260503020941 0 0.0 0.0 0.00 0.00 0.00 53 1019.1
20260503020441 0 0.0 0.0 0.00 0.00 0.00 53 1019.0
20260503015941 0 0.0 0.0 0.00 0.00 0.00 52 1019.2
20260503015441 0 0.0 0.0 0.00 0.00 0.00 51 1019.2
20260503014941 0 0.0 0.0 0.00 0.00 0.00 50 1019.2
20260503014441 0 0.0 0.0 0.00 0.00 0.00 49 1019.2
20260503013941 0 0.0 0.0 0.00 0.00 0.00 49 1019.3
20260503013441 0 0.0 0.0 0.00 0.00 0.00 50 1019.3
20260503012941 0 0.0 0.0 0.00 0.00 0.00 48 1019.2
20260503012441 0 0.0 0.0 0.00 0.00 0.00 48 1019.2
20260503011941 0 0.0 0.0 0.00 0.00 0.00 49 1019.3
20260503011441 0 0.0 0.0 0.00 0.00 0.00 50 1019.3
20260503010941 0 0.0 0.0 0.00 0.00 0.00 51 1019.3
20260503010441 0 0.0 0.0 0.00 0.00 0.00 50 1019.3
20260503005941 0 0.0 0.0 0.00 0.00 0.00 49 1019.3
20260503005441 0 0.0 0.0 0.00 0.00 0.00 48 1019.4
20260503004941 0 0.0 0.0 0.00 0.00 0.00 49 1019.4
20260503004441 0 0.0 0.0 0.00 0.00 0.00 49 1019.4
20260503003941 0 0.0 0.0 0.00 0.00 0.00 50 1019.4
20260503003441 0 0.0 0.0 0.00 0.00 0.00 49 1019.5
20260503002941 0 0.0 0.0 0.00 0.00 0.00 50 1019.6
20260503002441 0 0.0 0.0 0.00 0.00 0.00 48 1019.6
20260503001941 0 0.0 0.0 0.00 0.00 0.00 48 1019.6
20260503001441 0 0.0 0.0 0.00 0.00 0.00 48 1019.6
20260503000941 0 0.0 0.0 0.00 0.00 0.00 48 1019.6
20260503000441 0 0.0 0.0 0.00 0.00 0.00 48 1019.6
20260502235941 0 0.0 0.0 0.00 0.00 0.00 49 1019.7
20260502235441 0 0.0 0.0 0.00 0.00 0.00 49 1019.6
20260502234941 0 0.0 0.0 0.00 0.00 0.00 49 1019.7
20260502234441 0 0.0 0.0 0.00 0.00 0.00 50 1019.6
20260502233941 0 0.0 0.0 0.00 0.00 0.00 52 1019.7
20260502233441 0 0.0 0.0 0.00 0.00 0.00 52 1019.6
20260502232941 0 0.0 0.0 0.00 0.00 0.00 52 1019.8
20260502232441 0 0.0 0.0 0.00 0.00 0.00 48 1019.7
20260502231941 0 0.0 0.0 0.00 0.00 0.00 48 1019.8
20260502231441 0 0.0 0.0 0.00 0.00 0.00 46 1019.8
20260502230941 0 0.0 0.0 0.00 0.00 0.00 44 1019.7
20260502230441 0 0.0 0.0 0.00 0.00 0.00 43 1019.6
20260502225941 0 0.0 0.0 0.00 0.00 0.00 46 1019.7
20260502225441 0 0.0 0.0 0.00 0.00 0.00 44 1019.7
20260502224941 0 0.0 0.0 0.00 0.00 0.00 45 1019.7
20260502224441 0 0.0 0.0 0.00 0.00 0.00 47 1019.8
20260502223941 0 0.0 0.0 0.00 0.00 0.00 46 1019.7
20260502223441 0 0.0 0.0 0.00 0.00 0.00 48 1019.7
20260502222941 0 0.0 0.0 0.00 0.00 0.00 49 1019.6
20260502222441 0 0.0 0.0 0.00 0.00 0.00 48 1019.7
20260502221941 0 0.0 0.0 0.00 0.00 0.00 48 1019.6
20260502221441 0 0.0 0.0 0.00 0.00 0.00 49 1019.7
20260502220941 0 0.0 0.0 0.00 0.00 0.00 49 1019.6
20260502220441 0 0.0 0.0 0.00 0.00 0.00 48 1019.7
20260502215941 0 0.0 0.0 0.00 0.00 0.00 48 1019.7
20260502215441 0 0.0 0.0 0.00 0.00 0.00 49 1019.6
20260502214941 0 0.0 0.0 0.00 0.00 0.00 49 1019.5
20260502214441 0 0.0 0.0 0.00 0.00 0.00 49 1019.6
20260502213941 0 0.0 0.0 0.00 0.00 0.00 49 1019.5
20260502213441 0 0.0 0.0 0.00 0.00 0.00 49 1019.5
20260502212941 0 0.0 0.0 0.00 0.00 0.00 51 1019.5
20260502212441 0 0.0 0.0 0.00 0.00 0.00 50 1019.5
20260502211941 0 0.0 0.0 0.00 0.00 0.00 51 1019.4
20260502211441 0 0.0 0.0 0.00 0.00 0.00 52 1019.5
20260502210941 0 0.0 0.0 0.00 0.00 0.00 52 1019.4
20260502210441 0 0.0 0.0 0.00 0.00 0.00 51 1019.4
20260502205941 0 0.0 0.0 0.00 0.00 0.00 52 1019.5
20260502205441 0 0.0 0.0 0.00 0.00 0.00 52 1019.5
20260502204941 0 0.0 0.0 0.00 0.00 0.00 52 1019.5
20260502204441 0 0.0 0.0 0.00 0.00 0.00 52 1019.5
20260502203942 0 0.0 0.0 0.00 0.00 0.00 51 1019.6
20260502203441 0 0.0 0.0 0.00 0.00 0.00 51 1019.5
20260502202941 0 0.0 0.0 0.00 0.00 0.00 52 1019.6
20260502202441 0 0.0 0.0 0.00 0.00 0.00 51 1019.6
20260502201941 0 0.0 0.0 0.00 0.00 0.00 51 1019.6
20260502201441 0 0.0 0.0 0.00 0.00 0.00 51 1019.6
20260502200941 0 0.0 0.0 0.00 0.00 0.00 50 1019.6
20260502200441 0 0.0 0.0 0.00 0.00 0.00 50 1019.7
20260502195941 0 0.0 0.0 0.00 0.00 0.00 50 1019.5
20260502195441 0 0.0 0.0 0.00 0.00 0.00 49 1019.6
20260502194941 0 0.0 0.0 0.00 0.00 0.00 49 1019.6
20260502194441 0 0.0 0.0 0.00 0.00 0.00 48 1019.5
20260502193941 0 0.0 0.0 0.00 0.00 0.00 47 1019.4
20260502193441 0 0.0 0.0 0.00 0.00 0.00 47 1019.4
20260502192941 0 0.0 0.0 0.00 0.00 0.00 46 1019.3
20260502192441 0 0.0 0.0 0.00 0.00 0.00 46 1019.2
20260502191941 0 0.0 0.0 0.00 0.00 0.00 45 1019.2
20260502191441 0 0.0 0.0 0.00 0.00 0.00 45 1019.1
20260502190941 0 0.0 0.0 0.00 0.00 0.00 44 1019.2
20260502190441 0 0.0 0.0 0.00 0.00 0.00 43 1019.2
20260502185941 0 0.0 0.0 0.00 0.00 0.00 43 1019.2
20260502185441 0 0.0 0.0 0.00 0.00 0.00 41 1019.1
20260502184941 0 0.0 0.0 0.00 0.00 0.00 42 1019.0
20260502184441 0 0.0 0.0 0.00 0.00 0.00 42 1019.0
20260502183941 0 0.0 0.0 0.00 0.00 0.00 42 1019.0
20260502183441 0 0.0 0.0 0.00 0.00 0.00 43 1019.0
20260502182941 0 0.0 0.0 0.00 0.00 0.00 40 1019.0
20260502182441 0 0.0 0.0 0.00 0.00 0.00 40 1019.0
20260502181941 0 0.0 0.0 0.00 0.00 0.00 40 1019.0
20260502181441 0 0.0 0.0 0.00 0.00 0.00 41 1019.0
20260502180941 0 0.0 0.0 0.00 0.00 0.00 44 1019.0
20260502180441 0 0.0 0.0 0.00 0.00 0.00 40 1019.0
20260502170441 0 0.0 0.0 0.00 0.00 0.00 39 1019.1
20260502163941 0 0.0 0.0 0.00 0.00 0.00 30 1019.1
20260502163441 0 0.0 0.0 0.00 0.00 0.00 29 1019.1
20260502162941 0 0.0 0.0 0.00 0.00 0.00 29 1019.2
20260502162441 0 0.0 0.0 0.00 0.00 0.00 28 1019.3
20260502161941 0 0.0 0.0 0.00 0.00 0.00 28 1019.3
20260502161441 0 0.0 0.0 0.00 0.00 0.00 28 1019.4
20260502160941 0 0.0 0.0 0.00 0.00 0.00 27 1019.5
20260502160441 0 0.0 0.0 0.00 0.00 0.00 27 1019.6
20260502151941 0 0.0 0.0 0.00 0.00 0.00 27 1019.9
20260502151441 0 0.0 0.0 0.00 0.00 0.00 27 1020.0
20260502150941 0 0.0 0.0 0.00 0.00 0.00 28 1019.9
20260502150441 0 0.0 0.0 0.00 0.00 0.00 29 1020.0
20260502130441 0 0.0 0.0 0.00 0.00 0.00 29 1022.0
20260502123441 0 0.0 0.0 0.00 0.00 0.00 31 1022.3
20260502122941 0 0.0 0.0 0.00 0.00 0.00 31 1022.5
20260502122441 0 0.0 0.0 0.00 0.00 0.00 32 1022.6
20260502121941 0 0.0 0.0 0.00 0.00 0.00 33 1022.6
20260502121441 0 0.0 0.0 0.00 0.00 0.00 35 1022.6
20260502120941 0 0.0 0.0 0.00 0.00 0.00 35 1022.7
20260502120441 0 0.0 0.0 0.00 0.00 0.00 35 1022.8
20260502115441 0 0.0 0.0 0.00 0.00 0.00 37 1023.0
20260502114941 0 0.0 0.0 0.00 0.00 0.00 39 1023.1
20260502114441 0 0.0 0.0 0.00 0.00 0.00 38 1023.1
20260502113941 0 0.0 0.0 0.00 0.00 0.00 37 1023.2
20260502113441 0 0.0 0.0 0.00 0.00 0.00 39 1023.2
20260502112941 0 0.0 0.0 0.00 0.00 0.00 38 1023.4
20260502112441 0 0.0 0.0 0.00 0.00 0.00 39 1023.5
20260502111941 0 0.0 0.0 0.00 0.00 0.00 39 1023.6
20260502111441 0 0.0 0.0 0.00 0.00 0.00 39 1023.7
20260502110941 0 0.0 0.0 0.00 0.00 0.00 40 1023.8
20260502110441 0 0.0 0.0 0.00 0.00 0.00 42 1023.9
20260502105941 0 0.0 0.0 0.00 0.00 0.00 41 1023.9
20260502105441 0 0.0 0.0 0.00 0.00 0.00 41 1023.9
20260502104941 0 0.0 0.0 0.00 0.00 0.00 42 1023.9
20260502104441 0 0.0 0.0 0.00 0.00 0.00 41 1024.1
20260502103941 0 0.0 0.0 0.00 0.00 0.00 42 1024.1
20260502103441 0 0.0 0.0 0.00 0.00 0.00 41 1024.2
20260502102941 0 0.0 0.0 0.00 0.00 0.00 42 1024.2
20260502102441 0 0.0 0.0 0.00 0.00 0.00 40 1024.4
20260502101941 0 0.0 0.0 0.00 0.00 0.00 39 1024.5
20260502101441 0 0.0 0.0 0.00 0.00 0.00 41 1024.5
20260502100941 0 0.0 0.0 0.00 0.00 0.00 44 1024.6
20260502100441 0 0.0 0.0 0.00 0.00 0.00 43 1024.6
20260502091441 0 0.0 0.0 0.00 0.00 0.00 48 1025.2
20260502090941 0 0.0 0.0 0.00 0.00 0.00 49 1025.2
20260502090441 0 0.0 0.0 0.00 0.00 0.00 49 1025.4
20260502071441 0 0.0 0.0 0.00 0.00 0.00 55 1025.8
20260502070941 0 0.0 0.0 0.00 0.00 0.00 56 1025.8
20260502070441 0 0.0 0.0 0.00 0.00 0.00 56 1025.9
20260502065941 0 0.0 0.0 0.00 0.00 0.00 57 1025.9
20260502065441 0 0.0 0.0 0.00 0.00 0.00 56 1026.0
20260502064941 0 0.0 0.0 0.00 0.00 0.00 56 1026.0
20260502064441 0 0.0 0.0 0.00 0.00 0.00 57 1025.9
20260502063941 0 0.0 0.0 0.00 0.00 0.00 56 1026.0
20260502063441 0 0.0 0.0 0.00 0.00 0.00 57 1026.0
20260502062941 0 0.0 0.0 0.00 0.00 0.00 57 1025.9
20260502062441 0 0.0 0.0 0.00 0.00 0.00 56 1026.0
20260502061941 0 0.0 0.0 0.00 0.00 0.00 56 1025.9
20260502061441 0 0.0 0.0 0.00 0.00 0.00 55 1025.9
20260502060941 0 0.0 0.0 0.00 0.00 0.00 56 1025.9
20260502060441 0 0.0 0.0 0.00 0.00 0.00 57 1026.0
20260502055941 0 0.0 0.0 0.00 0.00 0.00 59 1025.9
20260502055441 0 0.0 0.0 0.00 0.00 0.00 59 1025.9
20260502054941 0 0.0 0.0 0.00 0.00 0.00 58 1025.9
20260502054441 0 0.0 0.0 0.00 0.00 0.00 58 1025.9
20260502053941 0 0.0 0.0 0.00 0.00 0.00 58 1025.9
20260502053441 0 0.0 0.0 0.00 0.00 0.00 58 1026.0
20260502052941 0 0.0 0.0 0.00 0.00 0.00 59 1025.9
20260502052441 0 0.0 0.0 0.00 0.00 0.00 57 1026.0
20260502051941 0 0.0 0.0 0.00 0.00 0.00 59 1025.9
20260502051441 0 0.0 0.0 0.00 0.00 0.00 57 1025.9
20260502050941 0 0.0 0.0 0.00 0.00 0.00 58 1025.8
20260502050441 0 0.0 0.0 0.00 0.00 0.00 57 1025.7
20260502045941 0 0.0 0.0 0.00 0.00 0.00 58 1025.7
20260502045441 0 0.0 0.0 0.00 0.00 0.00 57 1025.7
20260502044941 0 0.0 0.0 0.00 0.00 0.00 58 1025.8
20260502044441 0 0.0 0.0 0.00 0.00 0.00 57 1025.7
20260502043941 0 0.0 0.0 0.00 0.00 0.00 57 1025.7
20260502043441 0 0.0 0.0 0.00 0.00 0.00 57 1025.6
20260502042941 0 0.0 0.0 0.00 0.00 0.00 57 1025.6
20260502042441 0 0.0 0.0 0.00 0.00 0.00 57 1025.6
20260502041941 0 0.0 0.0 0.00 0.00 0.00 58 1025.7
20260502041441 0 0.0 0.0 0.00 0.00 0.00 57 1025.6
20260502040941 0 0.0 0.0 0.00 0.00 0.00 57 1025.6
20260502040441 0 0.0 0.0 0.00 0.00 0.00 58 1025.6
20260502035941 0 0.0 0.0 0.00 0.00 0.00 58 1025.6
20260502035441 0 0.0 0.0 0.00 0.00 0.00 57 1025.6
20260502034941 0 0.0 0.0 0.00 0.00 0.00 56 1025.6
20260502034441 0 0.0 0.0 0.00 0.00 0.00 55 1025.6
20260502033941 0 0.0 0.0 0.00 0.00 0.00 54 1025.6
20260502033441 0 0.0 0.0 0.00 0.00 0.00 53 1025.6
20260502032941 0 0.0 0.0 0.00 0.00 0.00 53 1025.6
20260502032441 0 0.0 0.0 0.00 0.00 0.00 52 1025.6
20260502031941 0 0.0 0.0 0.00 0.00 0.00 52 1025.5
20260502031441 0 0.0 0.0 0.00 0.00 0.00 53 1025.5
20260502030941 0 0.0 0.0 0.00 0.00 0.00 53 1025.5
20260502030441 0 0.0 0.0 0.00 0.00 0.00 53 1025.4
20260502025941 0 0.0 0.0 0.00 0.00 0.00 54 1025.5
20260502025441 0 0.0 0.0 0.00 0.00 0.00 54 1025.6
20260502024941 0 0.0 0.0 0.00 0.00 0.00 53 1025.6
20260502024441 0 0.0 0.0 0.00 0.00 0.00 54 1025.7
20260502023941 0 0.0 0.0 0.00 0.00 0.00 53 1025.6
20260502023441 0 0.0 0.0 0.00 0.00 0.00 53 1025.7
20260502022941 0 0.0 0.0 0.00 0.00 0.00 52 1025.7
20260502022441 0 0.0 0.0 0.00 0.00 0.00 51 1025.6
20260502021941 0 0.0 0.0 0.00 0.00 0.00 51 1025.6
20260502021441 0 0.0 0.0 0.00 0.00 0.00 50 1025.6